W4GHW Weather Reports


Display with metric or nautical units.
time (UTC)temp
F
wind
direction
speed
MPH
gust
MPH
rain 1hr
in
rain 24hr
in
rain mn
in
humidity
%
barometer
mb
20260905092521 75 132 0.0 3.0 0.00 0.18 0.00 92 1014.2
20260905092019 74 165 1.0 3.0 0.00 0.18 0.00 92 1014.1
20260905091839 75 200 1.0 3.0 0.00 0.18 0.00 92 1015.0
20260905091557 75 253 0.0 2.0 0.00 0.18 0.00 92 1014.1
20260905091045 74 253 0.0 2.0 0.00 0.18 0.00 92 1014.2
20260905090544 74 253 0.0 3.0 0.00 0.18 0.00 92 1014.2
20260905090326 75 253 1.0 4.0 0.00 0.18 0.00 92 1015.1
20260905090033 74 279 1.0 4.0 0.00 0.18 0.00 92 1014.2
20260905085534 74 259 1.0 5.0 0.00 0.18 0.00 92 1014.3
20260905085029 75 190 1.0 4.0 0.00 0.18 0.00 92 1014.2
20260905084831 75 216 0.0 4.0 0.00 0.18 0.00 92 1015.1
20260905084529 75 249 0.0 5.0 0.00 0.18 0.00 92 1014.3
20260905084019 75 243 1.0 4.0 0.00 0.18 0.00 92 1014.2
20260905083519 75 221 0.0 4.0 0.00 0.18 0.00 92 1014.4
20260905083338 75 210 1.0 4.0 0.00 0.18 0.00 92 1015.2
20260905083105 75 238 1.0 4.0 0.00 0.18 0.00 92 1014.3
20260905082543 75 225 0.0 3.0 0.00 0.18 0.00 92 1014.3
20260905082040 75 267 1.0 3.0 0.00 0.18 0.00 92 1014.5
20260905081822 75 267 2.0 3.0 0.00 0.18 0.00 92 1015.4
20260905081531 75 268 0.0 1.0 0.00 0.18 0.00 92 1014.5
20260905081027 75 268 0.0 1.0 0.00 0.18 0.00 92 1014.5
20260905080527 75 268 0.0 2.0 0.00 0.18 0.00 92 1014.5
20260905080330 75 268 0.0 2.0 0.00 0.18 0.00 92 1015.3
20260905080021 75 267 0.0 4.0 0.00 0.18 0.00 92 1014.4
20260905075516 75 268 0.0 4.0 0.00 0.18 0.00 92 1014.4
20260905075013 75 279 2.0 6.0 0.00 0.18 0.00 92 1014.4
20260905074815 75 284 2.0 6.0 0.00 0.18 0.00 92 1015.3
20260905074517 75 284 2.0 6.0 0.00 0.18 0.00 92 1014.4
20260905074009 75 251 0.0 6.0 0.00 0.18 0.00 92 1014.4
20260905073503 75 269 1.0 3.0 0.00 0.18 0.00 92 1014.4
20260905073341 75 311 2.0 3.0 0.00 0.18 0.00 92 1015.4
20260905073039 75 292 1.0 3.0 0.00 0.18 0.00 92 1014.4
20260905072530 75 260 0.0 2.0 0.00 0.18 0.00 92 1014.3
20260905072028 75 260 0.0 3.0 0.00 0.18 0.00 92 1014.4
20260905071823 75 260 0.0 3.0 0.00 0.18 0.00 92 1015.2
20260905071523 75 260 0.0 2.0 0.00 0.18 0.00 92 1014.4
20260905071022 75 260 0.0 2.0 0.00 0.18 0.00 92 1014.2
20260905070523 75 260 0.0 2.0 0.00 0.18 0.00 92 1014.3
20260905070330 75 260 0.0 2.0 0.00 0.18 0.00 92 1015.2
20260905070013 75 260 0.0 2.0 0.00 0.18 0.00 92 1014.3
20260905065513 75 260 0.0 3.0 0.00 0.18 0.00 92 1014.3
20260905065009 75 260 1.0 4.0 0.00 0.18 0.00 92 1014.4
20260905064815 76 260 1.0 4.0 0.00 0.18 0.00 92 1015.3
20260905064508 75 255 1.0 2.0 0.00 0.18 0.00 92 1014.5
20260905064004 75 242 0.0 2.0 0.00 0.18 0.00 92 1014.6
20260905063559 75 294 0.0 2.0 0.00 0.18 0.00 92 1014.5
20260905063502 75 294 0.0 2.0 0.00 0.18 0.00 92 1014.6
20260905063322 76 294 1.0 2.0 0.00 0.18 0.00 92 1015.5
20260905063005 75 294 0.0 3.0 0.00 0.18 0.00 92 1014.6
20260905062508 75 236 0.0 3.0 0.00 0.18 0.00 92 1014.6
20260905062018 75 276 0.0 4.0 0.00 0.18 0.00 92 1014.7
20260905061822 75 234 1.0 4.0 0.00 0.18 0.00 92 1015.5
20260905061515 75 213 1.0 3.0 0.00 0.18 0.00 92 1014.7
20260905061021 75 229 0.0 3.0 0.00 0.18 0.00 92 1014.6
20260905060524 75 198 2.0 3.0 0.00 0.18 0.00 92 1014.7
20260905060345 76 208 2.0 2.0 0.00 0.18 0.00 92 1015.7
20260905060006 75 232 0.0 2.0 0.00 0.18 0.00 92 1014.9
20260905055510 75 278 0.0 2.0 0.00 0.18 0.00 92 1014.8
20260905055014 75 216 0.0 1.0 0.00 0.18 0.00 92 1014.8
20260905054822 76 259 0.0 1.0 0.00 0.18 0.00 92 1015.8
20260905054543 75 259 0.0 1.0 0.00 0.18 0.00 92 1014.9
20260905054022 75 192 0.0 2.0 0.00 0.18 0.00 92 1015.0
20260905053520 75 226 0.0 2.0 0.00 0.18 0.00 92 1015.0
20260905053322 76 257 0.0 2.0 0.00 0.18 0.00 92 1016.0
20260905053019 75 257 0.0 2.0 0.00 0.18 0.00 92 1015.1
20260905052524 75 178 0.0 3.0 0.00 0.18 0.00 92 1015.2
20260905052035 75 198 0.0 3.0 0.00 0.18 0.00 92 1015.2
20260905051820 75 214 2.0 3.0 0.00 0.18 0.00 92 1016.2
20260905051536 75 173 0.0 3.0 0.00 0.18 0.00 92 1015.3
20260905051040 75 197 1.0 3.0 0.00 0.18 0.00 92 1015.4
20260905050541 75 155 0.0 2.0 0.00 0.18 0.00 92 1015.2
20260905050342 75 219 1.0 2.0 0.00 0.18 0.00 92 1016.2
20260905050021 75 205 0.0 3.0 0.00 0.18 0.00 92 1015.3
20260905045531 75 178 1.0 3.0 0.00 0.18 0.00 92 1015.3
20260905045033 75 169 0.0 2.0 0.00 0.18 0.00 92 1015.3
20260905044840 75 169 0.0 2.0 0.00 0.18 0.00 92 1016.2
20260905044517 75 215 0.0 3.0 0.00 0.18 0.00 92 1015.2
20260905044019 75 178 0.0 2.0 0.00 0.18 0.00 92 1015.2
20260905043523 75 124 0.0 1.0 0.00 0.18 0.00 92 1015.3
20260905043319 75 124 0.0 1.0 0.00 0.18 0.00 92 1016.2
20260905043033 75 124 0.0 1.0 0.00 0.18 0.00 92 1015.3
20260905042537 75 124 0.0 1.0 0.00 0.18 0.00 92 1015.3
20260905042029 75 97 0.0 1.0 0.00 0.18 0.00 92 1015.2
20260905041838 75 97 0.0 2.0 0.00 0.18 0.00 92 1016.2
20260905041507 75 97 0.0 2.0 0.00 0.18 0.00 92 1015.3
20260905041007 75 88 0.0 1.0 0.00 0.18 0.00 92 1015.2
20260905040509 75 85 0.0 2.0 0.00 0.18 0.00 92 1015.2
20260905040337 75 133 1.0 2.0 0.00 0.18 0.00 92 1016.1
20260905040109 75 133 0.0 2.0 0.00 0.18 0.00 92 1015.1
20260905035556 75 133 0.0 2.0 0.00 0.18 0.18 92 1015.2
20260905035053 75 133 0.0 2.0 0.00 0.18 0.18 92 1015.1
20260905034815 75 116 0.0 2.0 0.00 0.18 0.18 92 1016.0
20260905034600 75 116 0.0 2.0 0.00 0.18 0.18 92 1015.2
20260905034048 75 113 0.0 2.0 0.00 0.18 0.18 92 1015.2
20260905033545 75 113 0.0 2.0 0.00 0.18 0.18 92 1015.4
20260905033323 76 113 1.0 2.0 0.00 0.18 0.18 92 1016.3
20260905033042 75 113 0.0 1.0 0.00 0.18 0.18 92 1015.5
20260905032536 75 113 0.0 2.0 0.00 0.18 0.18 92 1015.5
20260905032036 75 113 1.0 2.0 0.00 0.18 0.18 92 1015.6
20260905031849 76 135 1.0 2.0 0.00 0.18 0.18 92 1016.6
20260905031509 75 132 0.0 3.0 0.00 0.18 0.18 92 1015.5
20260905031005 75 146 0.0 3.0 0.00 0.18 0.18 92 1015.6
20260905030559 75 117 1.0 3.0 0.00 0.18 0.18 92 1015.8
20260905030501 75 117 0.0 3.0 0.00 0.18 0.18 92 1015.9
20260905030315 76 158 0.0 2.0 0.00 0.18 0.18 92 1016.7
20260905030055 75 123 1.0 2.0 0.00 0.18 0.18 92 1015.9
20260905025551 75 156 0.0 2.0 0.00 0.18 0.18 92 1015.9
20260905025047 75 157 0.0 2.0 0.00 0.18 0.18 92 1016.0
20260905024819 76 93 0.0 1.0 0.00 0.18 0.18 92 1016.8
20260905024556 75 93 0.0 1.0 0.00 0.18 0.18 92 1016.0
20260905024041 75 93 0.0 2.0 0.00 0.18 0.18 92 1016.0
20260905023533 75 93 0.0 2.0 0.00 0.18 0.18 92 1016.0
20260905023326 76 93 1.0 2.0 0.00 0.18 0.18 92 1016.9
20260905023007 75 93 0.0 2.0 0.00 0.18 0.18 92 1016.0
20260905022505 75 80 0.0 1.0 0.00 0.18 0.18 92 1015.9
20260905022004 75 80 0.0 1.0 0.00 0.18 0.18 92 1016.0
20260905021831 76 80 0.0 1.0 0.00 0.18 0.18 92 1016.9
20260905021557 75 80 0.0 1.0 0.00 0.18 0.18 92 1015.9
20260905021055 75 80 0.0 1.0 0.00 0.18 0.18 92 1016.0
20260905020556 76 80 0.0 1.0 0.00 0.18 0.18 92 1016.0
20260905020318 76 80 0.0 1.0 0.00 0.18 0.18 92 1016.8
20260905020054 76 80 0.0 1.0 0.00 0.18 0.18 92 1015.9
20260905015545 76 80 0.0 2.0 0.00 0.18 0.18 92 1015.8
20260905015042 76 130 0.0 2.0 0.00 0.18 0.18 92 1015.7
20260905014824 76 131 0.0 2.0 0.00 0.18 0.18 92 1016.6
20260905014534 75 116 0.0 2.0 0.00 0.18 0.18 92 1015.7
20260905014029 75 257 0.0 2.0 0.00 0.18 0.18 92 1015.7
20260905013526 75 257 0.0 2.0 0.00 0.18 0.18 92 1015.6
20260905013331 76 257 1.0 2.0 0.00 0.18 0.18 92 1016.5
20260905013021 75 257 0.0 1.0 0.00 0.18 0.18 92 1015.6
20260905012517 75 257 0.0 0.0 0.00 0.18 0.18 92 1015.5
20260905012013 75 257 0.0 2.0 0.00 0.18 0.18 92 1015.4
20260905011816 76 257 0.0 2.0 0.00 0.18 0.18 91 1016.4
20260905011513 75 257 0.0 2.0 0.00 0.18 0.18 92 1015.4
20260905011005 75 257 0.0 2.0 0.00 0.18 0.18 91 1015.3
20260905010502 75 257 0.0 2.0 0.00 0.18 0.18 91 1015.4
20260905010321 76 257 0.0 2.0 0.01 0.18 0.18 91 1016.4
20260905010106 75 257 0.0 2.0 0.01 0.18 0.18 91 1015.4
20260905005553 75 257 0.0 2.0 0.01 0.18 0.18 91 1015.4
20260905005047 75 257 1.0 3.0 0.01 0.18 0.18 91 1015.4
20260905004847 76 277 1.0 3.0 0.01 0.18 0.18 91 1016.4
20260905004523 75 273 0.0 3.0 0.01 0.18 0.18 91 1015.4
20260905004019 75 227 0.0 3.0 0.01 0.18 0.18 91 1015.4
20260905003515 75 240 0.0 3.0 0.02 0.18 0.18 91 1015.2
20260905003333 76 250 2.0 3.0 0.02 0.18 0.18 91 1016.2
20260905003009 75 241 0.0 5.0 0.03 0.18 0.18 91 1015.4
20260905002506 75 205 2.0 5.0 0.05 0.18 0.18 91 1015.5
20260905002005 75 186 0.0 6.0 0.06 0.18 0.18 91 1015.6
20260905001818 76 200 1.0 6.0 0.06 0.18 0.18 91 1016.5
20260905001559 75 131 0.0 7.0 0.07 0.18 0.18 91 1015.5
20260905001501 75 180 1.0 7.0 0.07 0.18 0.18 91 1015.5
20260905001056 75 171 2.0 7.0 0.08 0.18 0.18 90 1015.5
20260905000545 76 144 2.0 9.0 0.08 0.18 0.18 90 1015.4
20260905000347 76 205 3.0 9.0 0.07 0.17 0.17 90 1016.4
20260905000027 76 167 4.0 9.0 0.07 0.17 0.17 90 1015.6
20260904235514 76 128 2.0 6.0 0.07 0.17 0.17 90 1015.5
20260904235013 76 138 2.0 6.0 0.07 0.17 0.17 90 1015.4
20260904234830 77 115 3.0 6.0 0.07 0.17 0.17 90 1016.5
20260904234509 76 146 2.0 6.0 0.07 0.17 0.17 90 1015.6
20260904234005 76 117 3.0 7.0 0.07 0.17 0.17 89 1015.4
20260904233504 76 136 2.0 11.0 0.06 0.16 0.16 88 1015.6
20260904233317 77 159 3.0 11.0 0.06 0.16 0.16 88 1016.5
20260904233103 77 146 3.0 11.0 0.05 0.15 0.15 88 1015.3
20260904232556 77 193 5.0 10.0 0.04 0.14 0.14 88 1015.2
20260904232051 78 130 5.0 13.0 0.02 0.12 0.12 87 1015.3
20260904231822 79 137 6.0 13.0 0.02 0.12 0.12 86 1016.2
20260904231601 79 94 3.0 17.0 0.01 0.11 0.11 86 1015.2
20260904231043 79 109 6.0 17.0 0.00 0.10 0.10 83 1015.2
20260904230537 81 79 3.0 15.0 0.00 0.10 0.10 81 1015.1
20260904230329 82 128 6.0 15.0 0.00 0.10 0.10 81 1016.0
20260904230033 82 138 6.0 15.0 0.00 0.10 0.10 79 1015.0
20260904225531 84 131 7.0 14.0 0.00 0.10 0.10 76 1015.0
20260904225028 85 104 6.0 12.0 0.00 0.10 0.10 74 1014.8
20260904224813 87 99 5.0 10.0 0.00 0.10 0.10 74 1015.7
20260904224522 87 76 1.0 3.0 0.00 0.10 0.10 74 1014.7
20260904224021 87 98 0.0 0.0 0.00 0.10 0.10 72 1014.4
20260904223516 87 98 0.0 0.0 0.00 0.10 0.10 72 1014.3
20260904223322 87 98 0.0 0.0 0.00 0.10 0.10 72 1015.2
20260904223012 87 98 0.0 0.0 0.00 0.10 0.10 72 1014.2
20260904222510 87 98 0.0 2.0 0.00 0.10 0.10 70 1014.3
20260904222007 87 98 0.0 2.0 0.00 0.10 0.10 75 1014.3
20260904221827 87 98 0.0 2.0 0.00 0.10 0.10 75 1015.3
20260904221505 87 98 0.0 1.0 0.00 0.10 0.10 74 1014.3
20260904221101 87 98 0.0 2.0 0.00 0.10 0.10 74 1014.2
20260904221002 87 98 0.0 2.0 0.00 0.10 0.10 77 1014.2
20260904220601 86 98 0.0 2.0 0.00 0.10 0.10 75 1014.4
20260904220315 87 98 1.0 2.0 0.00 0.10 0.10 75 1015.5
20260904220059 86 246 0.0 1.0 0.00 0.10 0.10 76 1014.6
20260904215551 85 246 0.0 2.0 0.00 0.10 0.10 75 1014.7
20260904215048 85 246 0.0 2.0 0.00 0.10 0.10 76 1014.5
20260904214819 85 213 1.0 1.0 0.00 0.10 0.10 79 1015.5
20260904214547 84 189 0.0 0.0 0.00 0.10 0.10 80 1014.7
20260904214042 84 189 0.0 1.0 0.00 0.10 0.10 78 1014.6
20260904213542 84 189 0.0 2.0 0.00 0.10 0.10 81 1014.6
20260904213327 84 189 0.0 2.0 0.00 0.10 0.10 79 1015.5
20260904213033 84 189 0.0 3.0 0.00 0.10 0.10 77 1014.5
20260904212529 84 211 0.0 3.0 0.00 0.10 0.10 80 1014.6
20260904212031 83 126 0.0 1.0 0.01 0.10 0.10 83 1014.5
20260904211850 84 155 0.0 1.0 0.02 0.10 0.10 82 1015.4
20260904211515 83 155 0.0 2.0 0.07 0.10 0.10 85 1014.3
20260904211018 82 155 0.0 2.0 0.10 0.10 0.10 87 1014.4
20260904210521 82 190 0.0 0.0 0.10 0.10 0.10 87 1014.5
20260904210330 82 190 0.0 1.0 0.10 0.10 0.10 86 1015.5
20260904210020 82 190 0.0 1.0 0.10 0.10 0.10 87 1014.6
20260904205515 82 108 0.0 3.0 0.10 0.10 0.10 87 1014.6
20260904205011 82 190 0.0 3.0 0.10 0.10 0.10 88 1014.5
20260904204835 82 144 0.0 0.0 0.10 0.10 0.10 89 1015.6
20260904204542 81 295 0.0 0.0 0.10 0.10 0.10 88 1014.6
20260904204038 81 295 0.0 0.0 0.10 0.10 0.10 88 1014.7
20260904203529 81 295 0.0 2.0 0.10 0.10 0.10 86 1014.7
20260904203342 81 295 0.0 2.0 0.10 0.10 0.10 86 1015.7
20260904203003 81 332 0.0 3.0 0.10 0.10 0.10 84 1014.8
20260904202558 82 332 1.0 4.0 0.10 0.10 0.10 82 1014.8
20260904202052 83 323 2.0 13.0 0.09 0.09 0.09 80 1014.8
20260904201825 84 333 1.0 13.0 0.08 0.08 0.08 79 1016.0
20260904201552 85 51 5.0 13.0 0.03 0.03 0.04 78 1015.1
20260904201047 87 57 2.0 5.0 0.01 0.01 0.01 72 1015.0
20260904200540 86 138 1.0 3.0 0.00 0.00 0.00 75 1014.9
20260904200314 87 126 1.0 3.0 0.00 0.00 0.00 74 1015.8
20260904200052 86 228 1.0 3.0 0.00 0.00 0.00 74 1014.9
20260904195538 86 150 0.0 3.0 0.00 0.00 0.00 74 1014.9
20260904195029 86 112 1.0 3.0 0.00 0.00 0.00 72 1014.9
20260904194819 87 127 1.0 4.0 0.00 0.00 0.00 72 1016.0
20260904194520 87 119 0.0 6.0 0.00 0.00 0.00 72 1014.9
20260904194016 87 100 2.0 10.0 0.00 0.00 0.00 70 1014.9
20260904193512 88 86 4.0 8.0 0.00 0.00 0.00 69 1015.0
20260904193327 88 115 3.0 7.0 0.00 0.00 0.00 68 1015.9
20260904193009 87 175 3.0 7.0 0.00 0.00 0.00 70 1014.9
20260904192506 87 30 1.0 4.0 0.00 0.00 0.00 69 1015.0
20260904192004 87 98 0.0 5.0 0.00 0.00 0.00 69 1015.1
20260904191832 88 91 0.0 5.0 0.00 0.00 0.00 70 1016.1
20260904191559 88 29 1.0 5.0 0.00 0.00 0.00 70 1015.2
20260904191056 88 37 2.0 10.0 0.00 0.00 0.00 68 1015.1
20260904190554 90 350 2.0 10.0 0.00 0.00 0.00 65 1015.1
20260904190321 91 55 4.0 10.0 0.00 0.00 0.00 62 1016.1
20260904190052 91 47 1.0 9.0 0.00 0.00 0.00 61 1015.2
20260904185546 91 121 3.0 9.0 0.00 0.00 0.00 60 1015.2
20260904185044 91 265 0.0 3.0 0.00 0.00 0.00 62 1015.2
20260904184827 91 49 1.0 5.0 0.00 0.00 0.00 62 1016.2
20260904184544 91 51 1.0 5.0 0.00 0.00 0.00 61 1015.2
20260904184036 91 134 1.0 7.0 0.00 0.00 0.00 61 1015.3
20260904183538 90 126 3.0 7.0 0.00 0.00 0.00 68 1015.4
20260904183315 90 132 2.0 4.0 0.00 0.00 0.00 65 1016.4
20260904183039 89 156 2.0 4.0 0.00 0.00 0.00 65 1015.4
20260904182535 89 5 1.0 4.0 0.00 0.00 0.00 64 1015.4
20260904182022 89 28 1.0 3.0 0.00 0.00 0.00 66 1015.6
20260904181821 89 64 2.0 3.0 0.00 0.00 0.00 66 1016.6
20260904181518 88 235 2.0 4.0 0.00 0.00 0.00 67 1015.7
20260904181016 87 339 1.0 4.0 0.00 0.00 0.00 67 1015.9
20260904180512 87 42 0.0 4.0 0.00 0.00 0.00 66 1016.0
20260904180329 88 42 0.0 4.0 0.00 0.00 0.00 66 1017.0
20260904180009 88 42 0.0 4.0 0.00 0.00 0.00 67 1016.2
20260904175507 88 88 1.0 4.0 0.00 0.00 0.00 67 1016.3
20260904175006 89 90 2.0 5.0 0.00 0.00 0.00 65 1016.3
20260904174814 90 51 2.0 5.0 0.00 0.00 0.00 65 1017.3
20260904174558 90 19 2.0 5.0 0.00 0.00 0.00 64 1016.4
20260904174053 89 121 1.0 4.0 0.00 0.00 0.00 69 1016.6
20260904173550 88 286 1.0 4.0 0.00 0.00 0.00 67 1016.6
20260904173321 88 355 2.0 4.0 0.00 0.00 0.00 68 1017.6
20260904173059 87 44 1.0 4.0 0.00 0.00 0.00 69 1016.7
20260904172540 86 132 1.0 4.0 0.00 0.00 0.00 70 1016.7
20260904172040 86 346 1.0 6.0 0.00 0.00 0.00 72 1016.9
20260904171823 86 333 2.0 6.0 0.00 0.00 0.00 72 1017.9
20260904171530 86 95 1.0 6.0 0.00 0.00 0.00 71 1016.9
20260904171028 86 46 2.0 5.0 0.00 0.00 0.00 71 1017.1
20260904170526 86 48 1.0 4.0 0.00 0.00 0.00 72 1017.2
20260904170326 86 82 1.0 4.0 0.00 0.00 0.00 73 1018.2
20260904170037 85 119 0.0 4.0 0.00 0.00 0.00 74 1017.3
20260904165534 85 27 2.0 4.0 0.00 0.00 0.00 74 1017.3
20260904165026 84 55 2.0 6.0 0.00 0.00 0.00 74 1017.3
20260904164832 85 38 2.0 6.0 0.00 0.00 0.00 74 1018.3
20260904164522 84 78 2.0 6.0 0.00 0.00 0.00 73 1017.3
20260904164020 85 355 3.0 6.0 0.00 0.00 0.00 72 1017.4
20260904163517 85 34 2.0 6.0 0.00 0.00 0.00 73 1017.4
20260904163326 86 22 2.0 6.0 0.00 0.00 0.00 73 1018.4
20260904163017 85 93 2.0 6.0 0.00 0.00 0.00 73 1017.4
20260904162511 85 355 1.0 5.0 0.00 0.00 0.00 74 1017.5
20260904162006 85 27 2.0 5.0 0.00 0.00 0.00 73 1017.5
20260904161819 85 37 2.0 5.0 0.00 0.00 0.00 73 1018.5
20260904161605 85 82 1.0 6.0 0.00 0.00 0.00 74 1017.5
20260904161502 85 106 0.0 6.0 0.00 0.00 0.00 73 1017.6
20260904161058 85 89 0.0 6.0 0.00 0.00 0.00 74 1017.6
20260904160554 85 109 1.0 6.0 0.00 0.00 0.00 72 1017.7
20260904160315 86 74 3.0 6.0 0.00 0.00 0.00 72 1018.7
20260904160052 85 106 1.0 7.0 0.00 0.00 0.00 74 1017.7
20260904155547 85 101 3.0 7.0 0.00 0.00 0.00 73 1017.7
20260904155045 85 36 2.0 9.0 0.00 0.00 0.00 74 1017.7
20260904154822 85 315 3.0 9.0 0.00 0.00 0.00 74 1018.6
20260904154546 85 49 2.0 9.0 0.00 0.00 0.00 73 1017.7
20260904154050 85 56 3.0 8.0 0.00 0.00 0.00 74 1017.6
20260904153554 85 93 1.0 8.0 0.00 0.00 0.00 74 1017.6
20260904153323 86 15 3.0 8.0 0.00 0.00 0.00 73 1018.7
20260904153059 85 36 2.0 8.0 0.00 0.00 0.00 73 1017.7
20260904152555 85 124 4.0 8.0 0.00 0.00 0.00 73 1017.6
20260904152056 85 117 2.0 7.0 0.00 0.00 0.00 73 1017.6
20260904151822 85 184 1.0 6.0 0.00 0.00 0.00 74 1018.5
20260904151553 85 111 3.0 6.0 0.00 0.00 0.00 75 1017.3
20260904151055 84 38 2.0 5.0 0.00 0.00 0.00 76 1017.5
20260904150601 83 65 1.0 6.0 0.00 0.00 0.00 78 1017.4
20260904150505 83 105 1.0 6.0 0.00 0.00 0.00 77 1017.5
20260904150324 83 96 2.0 6.0 0.00 0.00 0.00 77 1018.5
20260904150058 83 85 2.0 6.0 0.00 0.00 0.00 77 1017.4
20260904150003 83 81 2.0 6.0 0.00 0.00 0.00 76 1017.4
20260904145601 83 51 2.0 5.0 0.00 0.00 0.00 76 1017.4
20260904145502 83 68 2.0 5.0 0.00 0.00 0.00 75 1017.4
20260904145058 84 51 3.0 5.0 0.00 0.00 0.00 75 1017.4
20260904144828 85 39 3.0 7.0 0.00 0.00 0.00 75 1018.4
20260904144554 84 25 2.0 7.0 0.00 0.00 0.00 74 1017.3
20260904144052 85 46 2.0 8.0 0.00 0.00 0.00 75 1017.2
20260904143546 84 46 2.0 8.0 0.00 0.00 0.00 76 1017.1
20260904143341 84 108 2.0 7.0 0.00 0.00 0.00 78 1018.0
20260904143032 84 332 2.0 6.0 0.00 0.00 0.00 77 1017.0
20260904142517 84 53 1.0 7.0 0.00 0.00 0.00 75 1017.0
20260904142015 85 336 2.0 7.0 0.00 0.00 0.00 75 1017.0
20260904141815 85 144 2.0 6.0 0.00 0.00 0.00 75 1017.9
20260904141508 84 101 2.0 6.0 0.00 0.00 0.00 76 1016.9
20260904141003 84 170 3.0 8.0 0.00 0.00 0.00 78 1016.9
20260904140600 83 156 1.0 8.0 0.00 0.00 0.00 78 1016.9
20260904140502 83 78 1.0 8.0 0.00 0.00 0.00 77 1016.9
20260904140328 84 282 3.0 8.0 0.00 0.00 0.00 77 1018.0
20260904140107 83 82 3.0 7.0 0.00 0.00 0.00 77 1017.0
20260904135554 83 90 2.0 8.0 0.00 0.00 0.00 77 1017.0
20260904135046 82 165 4.0 8.0 0.00 0.00 0.00 79 1016.9
20260904134836 83 103 5.0 8.0 0.00 0.00 0.00 79 1017.9
20260904134520 81 143 1.0 6.0 0.00 0.00 0.00 82 1016.8
20260904134017 80 159 2.0 6.0 0.00 0.00 0.00 82 1016.9
20260904133514 80 105 1.0 4.0 0.00 0.00 0.00 84 1016.9
20260904133322 80 96 1.0 3.0 0.00 0.00 0.00 85 1017.9
20260904133012 79 45 1.0 6.0 0.00 0.00 0.00 85 1016.9
20260904132508 79 360 2.0 8.0 0.00 0.00 0.00 84 1016.9
20260904132004 80 28 3.0 9.0 0.00 0.00 0.00 83 1016.9
20260904131814 80 63 2.0 9.0 0.00 0.00 0.00 83 1017.9
20260904131600 80 44 4.0 9.0 0.00 0.00 0.00 83 1016.9
20260904131055 80 41 1.0 5.0 0.00 0.00 0.00 84 1017.0
20260904130552 80 10 2.0 5.0 0.00 0.00 0.00 84 1016.9
20260904130352 80 44 3.0 6.0 0.00 0.00 0.00 84 1017.8
20260904130030 79 66 2.0 6.0 0.00 0.00 0.00 84 1016.9
20260904125527 79 123 0.0 5.0 0.00 0.00 0.00 86 1016.8
20260904125023 79 42 2.0 5.0 0.00 0.00 0.00 85 1016.7
20260904124822 79 80 2.0 5.0 0.00 0.00 0.00 86 1017.7
20260904124518 79 65 2.0 5.0 0.00 0.00 0.00 86 1016.7
20260904124013 78 34 1.0 4.0 0.00 0.00 0.00 87 1016.7
20260904123511 78 58 2.0 3.0 0.00 0.00 0.00 88 1016.7
20260904123315 78 76 1.0 3.0 0.00 0.00 0.00 89 1017.6
20260904123008 78 49 1.0 3.0 0.00 0.00 0.00 90 1016.6
20260904122504 77 355 0.0 4.0 0.00 0.00 0.00 91 1016.7
20260904122053 77 38 1.0 6.0 0.00 0.00 0.00 91 1016.6
20260904121846 77 43 2.0 6.0 0.00 0.00 0.00 91 1017.5
20260904121527 76 45 2.0 5.0 0.00 0.00 0.00 91 1016.6
20260904121029 76 38 1.0 2.0 0.00 0.00 0.00 91 1016.7
20260904120518 76 36 1.0 3.0 0.00 0.00 0.00 92 1016.7
20260904120338 77 35 1.0 3.0 0.00 0.00 0.00 92 1017.6
20260904120054 76 62 0.0 3.0 0.00 0.00 0.00 92 1016.8
20260904115553 76 59 1.0 3.0 0.00 0.00 0.00 92 1016.9
20260904115047 76 33 1.0 3.0 0.00 0.00 0.00 92 1016.8
20260904114829 76 96 1.0 3.0 0.00 0.00 0.00 92 1017.7
20260904114544 76 43 0.0 3.0 0.00 0.00 0.00 92 1016.7
20260904114039 76 36 0.0 3.0 0.00 0.00 0.00 92 1016.6
20260904113536 76 69 1.0 3.0 0.00 0.00 0.00 91 1016.5
20260904113351 76 46 1.0 3.0 0.00 0.00 0.00 91 1017.5
20260904113011 76 87 0.0 3.0 0.00 0.00 0.00 91 1016.4
20260904112507 76 71 0.0 2.0 0.00 0.00 0.00 91 1016.4
20260904112005 76 80 0.0 2.0 0.00 0.00 0.00 91 1016.4
20260904111824 76 96 1.0 2.0 0.00 0.00 0.00 91 1017.3
20260904111559 76 88 0.0 2.0 0.00 0.00 0.00 91 1016.3
20260904111501 76 88 0.0 2.0 0.00 0.00 0.00 91 1016.4
20260904111055 76 67 0.0 2.0 0.00 0.00 0.00 91 1016.3
20260904110553 76 67 0.0 2.0 0.00 0.00 0.00 91 1016.2
20260904110318 76 67 1.0 2.0 0.00 0.00 0.00 91 1017.2
20260904110049 76 112 0.0 2.0 0.00 0.00 0.00 91 1016.2
20260904105545 76 112 0.0 1.0 0.00 0.00 0.00 91 1016.3
20260904105039 76 112 0.0 0.0 0.00 0.00 0.00 91 1016.3
20260904104829 77 112 0.0 0.0 0.00 0.00 0.00 91 1017.3
20260904104538 76 112 0.0 0.0 0.00 0.00 0.00 90 1016.3
20260904104036 76 112 0.0 0.0 0.00 0.00 0.00 90 1016.4
20260904103529 76 112 0.0 1.0 0.00 0.00 0.00 90 1016.4
20260904103322 77 112 0.0 1.0 0.00 0.00 0.00 90 1017.3
20260904103058 76 112 0.0 1.0 0.00 0.00 0.00 90 1016.3
20260904102559 76 112 0.0 2.0 0.00 0.00 0.00 90 1016.2
20260904102053 76 112 0.0 2.0 0.00 0.00 0.00 90 1016.3
20260904101815 77 112 1.0 2.0 0.00 0.00 0.00 90 1017.3
20260904101548 76 112 0.0 2.0 0.00 0.00 0.00 90 1016.4
20260904101043 77 112 0.0 2.0 0.00 0.00 0.00 90 1016.3
20260904100537 76 112 0.0 1.0 0.00 0.00 0.00 90 1016.3
20260904100329 77 112 0.0 0.0 0.00 0.00 0.00 90 1017.3
20260904100037 76 112 0.0 0.0 0.00 0.00 0.00 90 1016.3
20260904095537 76 113 0.0 0.0 0.00 0.00 0.00 90 1016.2
20260904095028 77 112 0.0 0.0 0.00 0.00 0.00 90 1016.3
20260904094823 77 113 0.0 0.0 0.00 0.00 0.00 90 1017.1
20260904094534 77 112 0.0 0.0 0.00 0.00 0.00 90 1016.1
20260904094021 77 112 0.0 0.0 0.00 0.00 0.00 89 1016.3
20260904093521 77 112 0.0 2.0 0.00 0.00 0.00 89 1016.2
20260904093345 77 112 0.0 2.0 0.00 0.00 0.00 89 1017.1
20260904093054 77 112 0.0 2.0 0.00 0.00 0.00 89 1016.1